Location: Goll?ig?dem
(16.6773°N, 80.7332°E)
Time: 02:28:23
(UTC+00:00)

N. Korean satellite - Visible Passes

Search period start: 21 September 2021 00:00
Search period end: 01 October 2021 00:00
Orbit: 448 x 498 km, 97.3° (Epoch: 20 September)

Date Brightness Start Highest point End Pass type
(mag) Time Alt. Az. Time Alt. Az. Time Alt. Az.
21 Sep 9.9 22:49:40 10° ENE 22:51:12 12° E 22:52:44 10° ESE visible
22 Sep 6.7 23:53:06 10° N 23:56:35 53° WNW 00:00:07 10° SSW visible
23 Sep 7.6 23:25:25 10° NNE 23:28:53 49° E 23:32:24 10° S visible
24 Sep 9.6 22:58:40 10° NE 23:01:09 18° E 23:03:39 10° SE visible
26 Sep 6.8 23:35:12 10° NNE 23:38:48 75° ESE 23:42:25 10° S visible
27 Sep 9.0 23:08:01 10° NE 23:11:03 25° E 23:14:06 10° SSE visible
29 Sep 6.5 23:45:02 10° N 23:48:38 73° WNW 23:52:16 10° SSW visible
30 Sep 8.3 23:17:31 10° NNE 23:20:54 36° E 23:24:17 10° SSE visible
